| time (UTC) | temp F | wind direction | speed knots | gust knots | rain 1hr in | rain 24hr in | rain mn in | humidity % | barometer mb |
| 20260506050927 | 57 | 0.0 | 0.0 | 0.00 | 0.00 | 0.04 | 96 | 1008.1 | |
| 20260506050430 | 58 | 0.0 | 0.0 | 0.00 | 0.00 | 0.04 | 97 | 1007.6 | |
| 20260506044924 | 57 | 0.0 | 0.0 | 0.00 | 0.00 | 0.03 | 96 | 1008.5 | |
| 20260506044427 | 57 | 0.0 | 0.0 | 0.00 | 0.00 | 0.03 | 96 | 1008.5 | |
| 20260506043923 | 57 | 0.0 | 0.0 | 0.00 | 0.00 | 0.03 | 96 | 1007.9 | |
| 20260506043426 | 57 | 0.0 | 0.0 | 0.00 | 0.00 | 0.03 | 95 | 1008.3 | |
| 20260506042929 | 57 | 0.0 | 0.0 | 0.00 | 0.00 | 0.03 | 96 | 1007.9 | |
| 20260506042425 | 57 | 0.0 | 0.0 | 0.00 | 0.00 | 0.03 | 96 | 1008.4 | |
| 20260506041928 | 57 | 0.0 | 0.0 | 0.00 | 0.00 | 0.03 | 95 | 1008.6 | |
| 20260506041424 | 57 | 0.0 | 0.0 | 0.00 | 0.00 | 0.03 | 95 | 1008.4 | |
| 20260506040927 | 57 | 0.0 | 0.0 | 0.00 | 0.00 | 0.03 | 95 | 1009.1 | |
| 20260506040429 | 57 | 0.0 | 0.0 | 0.00 | 0.00 | 0.03 | 95 | 1008.3 | |
| 20260506035925 | 57 | 0.0 | 0.0 | 0.00 | 0.00 | 0.03 | 96 | 1008.0 | |
| 20260506035428 | 57 | 0.0 | 0.0 | 0.00 | 0.00 | 0.03 | 96 | 1008.3 | |
| 20260506034924 | 57 | 0.0 | 0.0 | 0.00 | 0.00 | 0.03 | 96 | 1008.6 | |
| 20260506033426 | 56 | 0.0 | 0.0 | 0.00 | 0.00 | 0.03 | 96 | 1009.4 | |
| 20260506032929 | 57 | 0.0 | 0.0 | 0.00 | 0.00 | 0.03 | 96 | 1008.2 | |
| 20260506032425 | 57 | 0.0 | 0.0 | 0.00 | 0.00 | 0.03 | 96 | 1008.7 | |
| 20260506031927 | 57 | 0.0 | 0.0 | 0.00 | 0.00 | 0.03 | 96 | 1009.8 | |
| 20260506030926 | 57 | 0.0 | 0.0 | 0.00 | 0.00 | 0.03 | 96 | 1009.0 | |
| 20260506030429 | 58 | 0.0 | 0.0 | 0.00 | 0.00 | 0.03 | 96 | 1009.1 | |
| 20260506025925 | 57 | 0.0 | 0.0 | 0.00 | 0.00 | 0.03 | 95 | 1008.7 | |
| 20260506025428 | 57 | 0.0 | 0.0 | 0.00 | 0.00 | 0.03 | 95 | 1009.2 | |
| 20260506024924 | 57 | 0.0 | 0.0 | 0.00 | 0.00 | 0.03 | 94 | 1010.0 | |
| 20260506024427 | 58 | 0.0 | 0.0 | 0.00 | 0.00 | 0.03 | 94 | 1009.0 | |
| 20260506023425 | 58 | 0.0 | 0.0 | 0.00 | 0.00 | 0.03 | 92 | 1008.3 | |
| 20260506022928 | 58 | 0.0 | 0.0 | 0.00 | 0.00 | 0.03 | 93 | 1008.5 | |
| 20260506022424 | 58 | 0.0 | 0.0 | 0.00 | 0.00 | 0.03 | 93 | 1008.3 | |
| 20260506021927 | 57 | 0.0 | 0.0 | 0.00 | 0.00 | 0.03 | 94 | 1008.7 | |
| 20260506021423 | 57 | 0.0 | 0.0 | 0.00 | 0.00 | 0.02 | 94 | 1008.8 | |
| 20260506020926 | 57 | 0.0 | 0.0 | 0.00 | 0.00 | 0.02 | 94 | 1009.4 | |
| 20260506020429 | 57 | 0.0 | 0.0 | 0.00 | 0.00 | 0.02 | 94 | 1009.0 | |
| 20260506015925 | 57 | 0.0 | 0.0 | 0.00 | 0.00 | 0.02 | 94 | 1009.5 | |
| 20260506015428 | 57 | 0.0 | 0.0 | 0.00 | 0.00 | 0.02 | 94 | 1008.9 | |
| 20260506014924 | 57 | 0.0 | 0.0 | 0.00 | 0.00 | 0.02 | 94 | 1009.2 | |
| 20260506014426 | 57 | 0.0 | 0.0 | 0.00 | 0.00 | 0.02 | 94 | 1009.8 | |
| 20260506013929 | 57 | 0.0 | 0.0 | 0.00 | 0.00 | 0.02 | 94 | 1009.2 | |
| 20260506013425 | 57 | 0.0 | 0.0 | 0.00 | 0.00 | 0.02 | 93 | 1009.6 | |
| 20260506012928 | 57 | 0.0 | 0.0 | 0.00 | 0.00 | 0.02 | 94 | 1010.1 | |
| 20260506012424 | 57 | 0.0 | 0.0 | 0.00 | 0.00 | 0.02 | 94 | 1010.4 | |
| 20260506011927 | 57 | 0.0 | 0.0 | 0.00 | 0.00 | 0.02 | 94 | 1010.0 | |
| 20260506011430 | 57 | 0.0 | 0.0 | 0.00 | 0.00 | 0.02 | 94 | 1010.2 | |
| 20260506010926 | 57 | 0.0 | 0.0 | 0.00 | 0.00 | 0.02 | 94 | 1010.6 | |
| 20260506005925 | 58 | 0.0 | 0.0 | 0.00 | 0.00 | 0.02 | 94 | 1010.5 | |
| 20260506005428 | 58 | 0.0 | 0.0 | 0.00 | 0.00 | 0.01 | 94 | 1010.1 | |
| 20260506004924 | 58 | 0.0 | 0.0 | 0.00 | 0.00 | 0.01 | 93 | 1010.4 | |
| 20260506004426 | 58 | 0.0 | 0.0 | 0.00 | 0.00 | 0.01 | 93 | 1011.1 | |
| 20260506003929 | 58 | 0.0 | 0.0 | 0.00 | 0.00 | 0.01 | 93 | 1011.4 | |
| 20260506003425 | 58 | 0.0 | 0.0 | 0.00 | 0.00 | 0.01 | 93 | 1011.6 | |
| 20260506002928 | 58 | 0.0 | 0.0 | 0.00 | 0.00 | 0.01 | 93 | 1011.2 | |
| 20260506002424 | 58 | 0.0 | 0.0 | 0.00 | 0.00 | 0.01 | 94 | 1010.5 | |
| 20260506001927 | 58 | 0.0 | 0.0 | 0.00 | 0.00 | 0.01 | 93 | 1010.9 | |
| 20260506001430 | 58 | 0.0 | 0.0 | 0.00 | 0.00 | 0.01 | 93 | 1011.1 | |
| 20260506000926 | 58 | 0.0 | 0.0 | 0.00 | 0.00 | 0.00 | 92 | 1011.5 | |
| 20260506000431 | 57 | 0.0 | 0.0 | 0.00 | 0.00 | 0.00 | 92 | 1011.2 | |
| 20260505235924 | 58 | 0.0 | 0.0 | 0.00 | 0.00 | 0.00 | 91 | 1011.6 | |
| 20260505235427 | 58 | 0.0 | 0.0 | 0.00 | 0.00 | 0.00 | 90 | 1010.6 | |
| 20260505234923 | 59 | 0.0 | 0.0 | 0.00 | 0.00 | 0.00 | 85 | 1011.6 | |
| 20260505234426 | 59 | 0.0 | 0.0 | 0.00 | 0.00 | 0.00 | 84 | 1011.4 | |
| 20260505233425 | 59 | 0.0 | 0.0 | 0.00 | 0.00 | 0.00 | 82 | 1011.3 | |
| 20260505232928 | 60 | 0.0 | 0.0 | 0.00 | 0.00 | 0.00 | 81 | 1011.5 | |
| 20260505232424 | 60 | 0.0 | 0.0 | 0.00 | 0.00 | 0.00 | 81 | 1011.9 | |
| 20260505231429 | 60 | 0.0 | 0.0 | 0.00 | 0.00 | 0.00 | 82 | 1011.5 | |
| 20260505230428 | 59 | 0.0 | 0.0 | 0.00 | 0.00 | 0.00 | 83 | 1011.7 | |
| 20260505225924 | 59 | 0.0 | 0.0 | 0.00 | 0.00 | 0.00 | 83 | 1012.0 | |
| 20260505225427 | 59 | 0.0 | 0.0 | 0.00 | 0.00 | 0.00 | 85 | 1012.0 | |
| 20260505224930 | 59 | 0.0 | 0.0 | 0.00 | 0.00 | 0.00 | 85 | 1011.8 | |
| 20260505224426 | 59 | 0.0 | 0.0 | 0.00 | 0.00 | 0.00 | 86 | 1011.3 | |
| 20260505223929 | 59 | 0.0 | 0.0 | 0.00 | 0.00 | 0.00 | 85 | 1012.4 | |
| 20260505222424 | 59 | 0.0 | 0.0 | 0.00 | 0.00 | 0.00 | 86 | 1012.2 | |
| 20260505221927 | 59 | 0.0 | 0.0 | 0.00 | 0.00 | 0.00 | 85 | 1011.9 | |
| 20260505221429 | 59 | 0.0 | 0.0 | 0.00 | 0.00 | 0.00 | 84 | 1012.1 | |
| 20260505220925 | 59 | 0.0 | 0.0 | 0.00 | 0.00 | 0.00 | 83 | 1012.6 | |
| 20260505220428 | 59 | 0.0 | 0.0 | 0.00 | 0.00 | 0.00 | 84 | 1012.3 | |
| 20260505215928 | 59 | 0.0 | 0.0 | 0.00 | 0.00 | 0.00 | 85 | 1011.8 | |
| 20260505215424 | 59 | 0.0 | 0.0 | 0.00 | 0.00 | 0.00 | 84 | 1012.0 | |
| 20260505214927 | 59 | 0.0 | 0.0 | 0.00 | 0.00 | 0.00 | 86 | 1012.3 | |
| 20260505214430 | 59 | 0.0 | 0.0 | 0.00 | 0.00 | 0.00 | 86 | 1012.0 | |
| 20260505213926 | 59 | 0.0 | 0.0 | 0.00 | 0.00 | 0.00 | 87 | 1011.8 | |
| 20260505213429 | 59 | 0.0 | 0.0 | 0.00 | 0.00 | 0.00 | 88 | 1012.5 | |
| 20260505212924 | 59 | 0.0 | 0.0 | 0.00 | 0.00 | 0.00 | 88 | 1013.0 | |
| 20260505212427 | 59 | 0.0 | 0.0 | 0.00 | 0.00 | 0.00 | 89 | 1012.9 | |
| 20260505211923 | 59 | 0.0 | 0.0 | 0.00 | 0.00 | 0.00 | 90 | 1012.6 | |
| 20260505210929 | 59 | 0.0 | 0.0 | 0.00 | 0.00 | 0.00 | 91 | 1013.3 | |
| 20260505205424 | 58 | 0.0 | 0.0 | 0.00 | 0.00 | 0.00 | 92 | 1012.3 | |
| 20260505204430 | 59 | 0.0 | 0.0 | 0.00 | 0.00 | 0.00 | 92 | 1013.6 | |
| 20260505203925 | 58 | 0.0 | 0.0 | 0.00 | 0.00 | 0.00 | 93 | 1013.2 | |
| 20260505203428 | 58 | 0.0 | 0.0 | 0.00 | 0.00 | 0.00 | 93 | 1012.5 | |
| 20260505202924 | 58 | 0.0 | 0.0 | 0.00 | 0.00 | 0.00 | 93 | 1012.7 | |
| 20260505202427 | 58 | 0.0 | 0.0 | 0.00 | 0.00 | 0.00 | 93 | 1014.0 | |
| 20260505201923 | 58 | 0.0 | 0.0 | 0.00 | 0.00 | 0.00 | 93 | 1013.3 | |
| 20260505201426 | 58 | 0.0 | 0.0 | 0.00 | 0.00 | 0.00 | 93 | 1013.6 | |
| 20260505200929 | 58 | 0.0 | 0.0 | 0.00 | 0.00 | 0.00 | 92 | 1014.4 | |
| 20260505200425 | 58 | 0.0 | 0.0 | 0.00 | 0.00 | 0.00 | 92 | 1013.6 | |
| 20260505195424 | 59 | 0.0 | 0.0 | 0.00 | 0.00 | 0.00 | 92 | 1013.4 | |
| 20260505194927 | 59 | 0.0 | 0.0 | 0.00 | 0.00 | 0.00 | 92 | 1012.3 | |
| 20260505194429 | 59 | 0.0 | 0.0 | 0.00 | 0.00 | 0.00 | 92 | 1012.5 | |
| 20260505193925 | 59 | 0.0 | 0.0 | 0.00 | 0.00 | 0.00 | 91 | 1012.6 | |
| 20260505193428 | 59 | 0.0 | 0.0 | 0.00 | 0.00 | 0.00 | 91 | 1013.4 | |
| 20260505192924 | 60 | 0.0 | 0.0 | 0.00 | 0.00 | 0.00 | 90 | 1012.9 | |
| 20260505191930 | 60 | 0.0 | 0.0 | 0.00 | 0.00 | 0.00 | 90 | 1012.5 | |
| 20260505191426 | 60 | 0.0 | 0.0 | 0.00 | 0.00 | 0.00 | 89 | 1012.7 | |
| 20260505190929 | 61 | 0.0 | 0.0 | 0.00 | 0.00 | 0.00 | 89 | 1012.5 | |
| 20260505185424 | 62 | 0.0 | 0.0 | 0.00 | 0.00 | 0.00 | 88 | 1012.8 | |
| 20260505184429 | 62 | 0.0 | 0.0 | 0.00 | 0.00 | 0.00 | 87 | 1012.4 | |
| 20260505183925 | 62 | 0.0 | 0.0 | 0.00 | 0.00 | 0.00 | 86 | 1011.9 | |
| 20260505183428 | 63 | 0.0 | 0.0 | 0.00 | 0.00 | 0.00 | 85 | 1012.0 | |
| 20260505182924 | 63 | 0.0 | 0.0 | 0.00 | 0.00 | 0.00 | 84 | 1012.7 | |
| 20260505182427 | 63 | 0.0 | 0.0 | 0.00 | 0.00 | 0.00 | 84 | 1012.1 | |
| 20260505181426 | 63 | 0.0 | 0.0 | 0.00 | 0.00 | 0.00 | 84 | 1012.7 | |
| 20260505175928 | 63 | 0.0 | 0.0 | 0.00 | 0.00 | 0.00 | 84 | 1012.5 | |
| 20260505175423 | 64 | 0.0 | 0.0 | 0.00 | 0.00 | 0.00 | 83 | 1012.4 | |
| 20260505174926 | 64 | 0.0 | 0.0 | 0.00 | 0.00 | 0.00 | 83 | 1012.8 | |
| 20260505174429 | 64 | 0.0 | 0.0 | 0.00 | 0.00 | 0.00 | 83 | 1012.1 | |
| 20260505173925 | 64 | 0.0 | 0.0 | 0.00 | 0.00 | 0.00 | 83 | 1012.0 | |
| 20260505173428 | 64 | 0.0 | 0.0 | 0.00 | 0.00 | 0.00 | 82 | 1013.1 | |
| 20260505172924 | 64 | 0.0 | 0.0 | 0.00 | 0.00 | 0.00 | 82 | 1012.6 | |
| 20260505172427 | 64 | 0.0 | 0.0 | 0.00 | 0.00 | 0.00 | 84 | 1012.1 | |
| 20260505171426 | 64 | 0.0 | 0.0 | 0.00 | 0.00 | 0.00 | 83 | 1012.5 | |
| 20260505170928 | 65 | 0.0 | 0.0 | 0.00 | 0.00 | 0.00 | 81 | 1012.4 | |
| 20260505170424 | 65 | 0.0 | 0.0 | 0.00 | 0.00 | 0.00 | 82 | 1012.6 | |
| 20260505165927 | 65 | 0.0 | 0.0 | 0.00 | 0.00 | 0.00 | 82 | 1012.4 | |
| 20260505164926 | 65 | 0.0 | 0.0 | 0.00 | 0.00 | 0.00 | 80 | 1011.9 | |
| 20260505163925 | 65 | 0.0 | 0.0 | 0.00 | 0.00 | 0.00 | 79 | 1011.9 | |
| 20260505162924 | 65 | 0.0 | 0.0 | 0.00 | 0.00 | 0.00 | 76 | 1012.0 | |
| 20260505161930 | 66 | 0.0 | 0.0 | 0.00 | 0.00 | 0.00 | 78 | 1012.2 | |
| 20260505161425 | 65 | 0.0 | 0.0 | 0.00 | 0.00 | 0.00 | 78 | 1013.3 | |
| 20260505160928 | 65 | 0.0 | 0.0 | 0.00 | 0.00 | 0.00 | 79 | 1013.1 | |
| 20260505152923 | 65 | 0.0 | 0.0 | 0.00 | 0.00 | 0.00 | 78 | 1013.7 | |
| 20260505152426 | 65 | 0.0 | 0.0 | 0.00 | 0.00 | 0.00 | 78 | 1013.1 | |
| 20260505151928 | 66 | 0.0 | 0.0 | 0.00 | 0.00 | 0.00 | 79 | 1014.5 | |
| 20260505151424 | 66 | 0.0 | 0.0 | 0.00 | 0.00 | 0.00 | 78 | 1013.3 | |
| 20260505150927 | 66 | 0.0 | 0.0 | 0.00 | 0.00 | 0.00 | 78 | 1013.5 | |
| 20260505150429 | 66 | 0.0 | 0.0 | 0.00 | 0.00 | 0.00 | 78 | 1013.3 | |
| 20260505140429 | 68 | 0.0 | 0.0 | 0.00 | 0.00 | 0.00 | 72 | 1013.5 | |
| 20260505124923 | 67 | 0.0 | 0.0 | 0.00 | 0.00 | 0.00 | 79 | 1014.3 | |
| 20260505124426 | 67 | 0.0 | 0.0 | 0.00 | 0.00 | 0.00 | 75 | 1013.6 | |
| 20260505123929 | 67 | 0.0 | 0.0 | 0.00 | 0.00 | 0.00 | 80 | 1013.5 | |
| 20260505123425 | 67 | 0.0 | 0.0 | 0.00 | 0.00 | 0.00 | 78 | 1013.6 | |
| 20260505122928 | 67 | 0.0 | 0.0 | 0.00 | 0.00 | 0.00 | 75 | 1012.9 | |
| 20260505122424 | 68 | 0.0 | 0.0 | 0.00 | 0.00 | 0.00 | 76 | 1013.7 | |
| 20260505121926 | 67 | 0.0 | 0.0 | 0.00 | 0.00 | 0.00 | 80 | 1013.8 | |
| 20260505121430 | 65 | 0.0 | 0.0 | 0.00 | 0.00 | 0.00 | 79 | 1013.7 | |
| 20260505120925 | 66 | 0.0 | 0.0 | 0.00 | 0.00 | 0.00 | 79 | 1013.6 | |
| 20260505120428 | 67 | 0.0 | 0.0 | 0.00 | 0.00 | 0.00 | 77 | 1012.9 | |
| 20260505115424 | 68 | 0.0 | 0.0 | 0.00 | 0.00 | 1.15 | 78 | 1013.0 | |
| 20260505113925 | 66 | 0.0 | 0.0 | 0.00 | 0.00 | 1.15 | 79 | 1013.4 | |
| 20260505113428 | 67 | 0.0 | 0.0 | 0.00 | 0.00 | 1.15 | 80 | 1013.2 | |
| 20260505112924 | 66 | 0.0 | 0.0 | 0.00 | 0.00 | 1.15 | 81 | 1013.7 | |
| 20260505112427 | 66 | 0.0 | 0.0 | 0.00 | 0.00 | 1.15 | 81 | 1014.0 | |
| 20260505111929 | 66 | 0.0 | 0.0 | 0.00 | 0.00 | 1.15 | 80 | 1013.1 | |
| 20260505111426 | 66 | 0.0 | 0.0 | 0.00 | 0.00 | 1.15 | 79 | 1013.4 | |
| 20260505110928 | 67 | 0.0 | 0.0 | 0.00 | 0.00 | 1.15 | 80 | 1014.0 | |
| 20260505110424 | 67 | 0.0 | 0.0 | 0.00 | 0.00 | 1.15 | 79 | 1012.7 | |
| 20260505101929 | 66 | 0.0 | 0.0 | 0.00 | 0.00 | 1.15 | 84 | 1013.2 | |
| 20260505101425 | 65 | 0.0 | 0.0 | 0.00 | 0.00 | 1.15 | 84 | 1013.0 | |
| 20260505100927 | 65 | 0.0 | 0.0 | 0.00 | 0.00 | 1.15 | 80 | 1013.2 | |
| 20260505100423 | 65 | 0.0 | 0.0 | 0.00 | 0.00 | 1.15 | 81 | 1013.2 | |
| 20260505095926 | 65 | 0.0 | 0.0 | 0.00 | 0.00 | 1.15 | 79 | 1012.5 | |
| 20260505095429 | 65 | 0.0 | 0.0 | 0.00 | 0.00 | 1.15 | 85 | 1013.1 | |
| 20260505094925 | 64 | 0.0 | 0.0 | 0.00 | 0.00 | 1.15 | 82 | 1013.6 | |
| 20260505094427 | 64 | 0.0 | 0.0 | 0.00 | 0.00 | 1.15 | 85 | 1012.9 | |
| 20260505093924 | 63 | 0.0 | 0.0 | 0.00 | 0.00 | 1.15 | 82 | 1012.9 | |
| 20260505093426 | 63 | 0.0 | 0.0 | 0.00 | 0.00 | 1.15 | 86 | 1012.8 | |
| 20260505092929 | 63 | 0.0 | 0.0 | 0.00 | 0.00 | 1.15 | 83 | 1012.6 | |
| 20260505092425 | 62 | 0.0 | 0.0 | 0.00 | 0.00 | 1.15 | 85 | 1013.2 | |
| 20260505091928 | 61 | 0.0 | 0.0 | 0.00 | 0.00 | 1.15 | 86 | 1012.8 | |
| 20260505091424 | 60 | 0.0 | 0.0 | 0.00 | 0.00 | 1.15 | 86 | 1012.3 | |
| 20260505090927 | 60 | 0.0 | 0.0 | 0.00 | 0.00 | 1.15 | 86 | 1012.3 | |
| 20260505090429 | 60 | 0.0 | 0.0 | 0.00 | 0.00 | 1.15 | 87 | 1012.9 | |
| 20260505085925 | 60 | 0.0 | 0.0 | 0.00 | 0.00 | 1.15 | 88 | 1013.7 | |
| 20260505085428 | 60 | 0.0 | 0.0 | 0.00 | 0.00 | 1.15 | 89 | 1012.5 | |
| 20260505084924 | 59 | 0.0 | 0.0 | 0.00 | 0.00 | 1.15 | 91 | 1013.6 | |
| 20260505084427 | 58 | 0.0 | 0.0 | 0.00 | 0.00 | 1.15 | 91 | 1012.7 | |
| 20260505083929 | 58 | 0.0 | 0.0 | 0.00 | 0.00 | 1.15 | 91 | 1013.0 | |
| 20260505083425 | 58 | 0.0 | 0.0 | 0.00 | 0.00 | 1.15 | 91 | 1013.1 | |
| 20260505082424 | 58 | 0.0 | 0.0 | 0.00 | 0.00 | 1.15 | 91 | 1013.0 | |
| 20260505081927 | 57 | 0.0 | 0.0 | 0.00 | 0.00 | 1.15 | 92 | 1012.5 | |
| 20260505081430 | 57 | 0.0 | 0.0 | 0.00 | 0.00 | 1.15 | 93 | 1012.7 | |
| 20260505080926 | 57 | 0.0 | 0.0 | 0.00 | 0.00 | 1.15 | 93 | 1012.1 | |
| 20260505075924 | 57 | 0.0 | 0.0 | 0.00 | 0.00 | 1.15 | 92 | 1013.0 | |
| 20260505075427 | 57 | 0.0 | 0.0 | 0.00 | 0.00 | 1.15 | 93 | 1013.1 | |
| 20260505074930 | 57 | 0.0 | 0.0 | 0.00 | 0.00 | 1.15 | 93 | 1013.0 | |
| 20260505074426 | 57 | 0.0 | 0.0 | 0.00 | 0.00 | 1.15 | 94 | 1013.2 | |
| 20260505073929 | 56 | 0.0 | 0.0 | 0.00 | 0.00 | 1.15 | 94 | 1013.2 | |
| 20260505073425 | 56 | 0.0 | 0.0 | 0.00 | 0.00 | 1.15 | 95 | 1012.9 | |
| 20260505072927 | 56 | 0.0 | 0.0 | 0.00 | 0.00 | 1.15 | 95 | 1012.3 | |
| 20260505072423 | 56 | 0.0 | 0.0 | 0.00 | 0.00 | 1.14 | 95 | 1012.7 | |
| 20260505071429 | 56 | 0.0 | 0.0 | 0.00 | 0.00 | 1.13 | 95 | 1013.1 | |
| 20260505070924 | 56 | 0.0 | 0.0 | 0.00 | 0.00 | 1.12 | 96 | 1013.4 | |
| 20260505070427 | 56 | 0.0 | 0.0 | 0.00 | 0.00 | 1.10 | 95 | 1013.4 | |
| 20260505065930 | 56 | 0.0 | 0.0 | 0.00 | 0.00 | 1.09 | 95 | 1013.0 | |
| 20260505065425 | 56 | 0.0 | 0.0 | 0.00 | 0.00 | 1.08 | 95 | 1013.2 | |
| 20260505064930 | 56 | 0.0 | 0.0 | 0.00 | 0.00 | 1.05 | 95 | 1013.6 | |
| 20260505064424 | 56 | 0.0 | 0.0 | 0.00 | 0.00 | 1.02 | 95 | 1013.0 | |
| 20260505063926 | 56 | 0.0 | 0.0 | 0.00 | 0.00 | 0.98 | 94 | 1013.2 | |
| 20260505062924 | 57 | 0.0 | 0.0 | 0.00 | 0.00 | 0.92 | 95 | 1013.9 | |
| 20260505062427 | 57 | 0.0 | 0.0 | 0.00 | 0.00 | 0.90 | 95 | 1013.6 | |
| 20260505061929 | 57 | 0.0 | 0.0 | 0.00 | 0.00 | 0.87 | 95 | 1012.6 | |
| 20260505061425 | 57 | 0.0 | 0.0 | 0.00 | 0.00 | 0.83 | 94 | 1013.6 | |
| 20260505060927 | 57 | 0.0 | 0.0 | 0.00 | 0.00 | 0.79 | 94 | 1011.5 | |
| 20260505060430 | 57 | 0.0 | 0.0 | 0.00 | 0.00 | 0.74 | 94 | 1011.4 | |
| 20260505055926 | 57 | 0.0 | 0.0 | 0.00 | 0.00 | 0.72 | 94 | 1010.8 | |
| 20260505054924 | 57 | 0.0 | 0.0 | 0.00 | 0.00 | 0.69 | 94 | 1011.2 |